Weather History for KAWM - February, 2013

Change the Weather History Date:

Wednesday, February 13, 2013

  Actual Average Record
Temperature  
Mean Temperature 41 °F -  
Max Temperature 45 °F 52 °F 72 °F (1990)
Min Temperature 37 °F 33 °F 11 °F (1988)
Degree Days  
Heating Degree Days 24    
Moisture  
Dew Point 38 °F    
Average Humidity 89    
Maximum Humidity 100    
Minimum Humidity 74    
Precipitation  
Precipitation 0.03 in - - ()
Sea Level Pressure  
Sea Level Pressure 29.95 in    
Wind  
Wind Speed 8 mph (NW)    
Max Wind Speed 14 mph    
Max Gust Speed 21 mph    
Visibility 8 miles    
Events Rain    
Averages and records for this station are not official NWS values.
T = Trace of Precipitation, MM = Missing Value Source: NWS Daily Summary

Daily Weather History Graph

Daily Weather History Graph

Search for Another Location

Airport or City:

Trip Planner

Search our weather history database for the weather conditions in past years. The results will help you decide how hot, cold, wet, or windy it might be!

Date:

Astronomy

Feb. 13, 2013 Rise Set
Actual Time 6:48 AM CST 5:41 PM CST
Civil Twilight 6:22 AM CST 6:07 PM CST
Nautical Twilight 5:53 AM CST 6:37 PM CST
Astronomical Twilight 5:23 AM CST 7:07 PM CST
Moon 8:28 AM CST (2/13) 9:32 PM CST (2/13)
Length of Visible Light 11h 44m
Length of Day
10h 52m
Waxing Crescent, 14% of the Moon is Illuminated
Feb 13
Waxing Crescent
Feb 17
First Quarter
Feb 25
Full
Mar 4
Last Quarter
Mar 11
New

Hourly Weather History & Observations

Time (CST) Temp. Windchill Dew Point Humidity Pressure Visibility Wind Dir Wind Speed Gust Speed Precip Events Conditions
12:34 AM 42.8 °F 37.5 °F 39.2 °F 87% 29.82 in 3.0 mi NNE 9.2 mph - 0.01 in Rain Light Rain
12:48 AM 41.0 °F 35.2 °F 39.2 °F 93% 29.81 in 3.0 mi NNE 9.2 mph - 0.01 in Rain Light Rain
12:53 AM 41.0 °F 35.8 °F 41.0 °F 100% 29.81 in 3.0 mi NNE 8.1 mph - 0.01 in Rain Light Rain
1:04 AM 41.0 °F 35.8 °F 39.2 °F 93% 29.81 in 4.0 mi NNE 8.1 mph - N/A   Overcast
1:53 AM 41.0 °F 34.3 °F 39.9 °F 96% 29.81 in 3.0 mi North 11.5 mph - N/A   Overcast
2:53 AM 41.0 °F 33.9 °F 39.9 °F 96% 29.81 in 4.0 mi North 12.7 mph - 0.01 in   Overcast
3:53 AM 39.9 °F 32.1 °F 39.0 °F 97% 29.82 in 4.0 mi North 13.8 mph - 0.01 in   Overcast
4:53 AM 39.0 °F 31.8 °F 37.9 °F 96% 29.85 in 6.0 mi North 11.5 mph 18.4 mph N/A   Overcast
5:05 AM 39.2 °F 32.0 °F 37.4 °F 93% 29.86 in 7.0 mi North 11.5 mph 20.7 mph N/A   Overcast
6:53 AM 39.0 °F 34.8 °F 37.0 °F 93% 29.90 in 10.0 mi North 5.8 mph - N/A   Overcast
7:53 AM 39.0 °F 34.8 °F 37.0 °F 93% 29.94 in 10.0 mi NNW 5.8 mph - N/A   Overcast
8:35 AM 39.2 °F 35.0 °F 37.4 °F 93% 29.96 in 10.0 mi North 5.8 mph - N/A   Overcast
8:53 AM 39.0 °F 35.7 °F 36.0 °F 89% 29.96 in 10.0 mi North 4.6 mph - N/A   Overcast
9:15 AM 39.2 °F 35.9 °F 37.4 °F 93% 29.97 in 10.0 mi NNW 4.6 mph - N/A   Overcast
9:53 AM 39.9 °F 34.5 °F 37.0 °F 89% 29.99 in 10.0 mi NNW 8.1 mph - N/A   Overcast
10:53 AM 41.0 °F 35.8 °F 37.0 °F 86% 30.02 in 10.0 mi NW 8.1 mph - N/A   Overcast
11:00 AM 41.0 °F 36.4 °F 37.4 °F 87% 30.02 in 10.0 mi NNW 6.9 mph - N/A   Unknown
11:26 AM 41.0 °F 35.8 °F 37.4 °F 87% 30.02 in 10.0 mi NW 8.1 mph - N/A   Overcast
11:33 AM 41.0 °F 36.4 °F 37.4 °F 87% 30.02 in 10.0 mi NW 6.9 mph - N/A   Overcast
11:53 AM 41.0 °F 38.0 °F 37.9 °F 89% 30.02 in 10.0 mi NW 4.6 mph - N/A   Overcast
12:53 PM 41.0 °F 35.8 °F 37.9 °F 89% 30.01 in 10.0 mi NW 8.1 mph - N/A   Overcast
1:53 PM 43.0 °F 39.5 °F 37.9 °F 82% 29.99 in 10.0 mi WNW 5.8 mph - N/A   Overcast
2:26 PM 42.8 °F 41.1 °F 37.4 °F 81% 29.97 in 10.0 mi WNW 3.5 mph - N/A   Mostly Cloudy
2:53 PM 44.1 °F 40.8 °F 37.9 °F 79% 29.97 in 10.0 mi NW 5.8 mph - N/A   Mostly Cloudy
3:53 PM 44.1 °F 41.5 °F 37.9 °F 79% 29.98 in 10.0 mi WNW 4.6 mph - N/A   Overcast
4:53 PM 45.0 °F 42.6 °F 37.0 °F 74% 29.98 in 10.0 mi SW 4.6 mph - N/A   Overcast
5:30 PM 42.8 °F 40.1 °F 37.4 °F 81% 29.98 in 10.0 mi SW 4.6 mph - N/A   Scattered Clouds
5:53 PM 42.1 °F 39.2 °F 37.0 °F 82% 29.99 in 10.0 mi SSW 4.6 mph - N/A   Clear
6:53 PM 37.0 °F 31.6 °F 35.1 °F 93% 30.00 in 10.0 mi South 6.9 mph - N/A   Clear
7:53 PM 37.9 °F 33.5 °F 36.0 °F 93% 30.01 in 10.0 mi SSW 5.8 mph - N/A   Clear
8:53 PM 39.9 °F 35.1 °F 37.0 °F 89% 30.01 in 10.0 mi South 6.9 mph - N/A   Clear
9:53 PM 39.9 °F 33.9 °F 37.0 °F 89% 30.02 in 10.0 mi South 9.2 mph - N/A   Clear
10:53 PM 39.9 °F 33.9 °F 37.0 °F 89% 30.03 in 10.0 mi SSW 9.2 mph - N/A   Clear
11:53 PM 39.0 °F 33.4 °F 36.0 °F 89% 30.03 in 10.0 mi SSW 8.1 mph - N/A   Clear